Location: Castiglione Fibocchi
(43.5333°N, 11.7667°E)
Time: 13:53:39
(UTC+00:00)

Cosmos 2292 Rocket - Pass Details

Date: 15 August 2020
Orbit: 379 x 1454 km, 83.0° (Epoch: 25 September)

Event Time Altitude Azimuth Distance (km) Brightness Sun altitude
Rises 01:11:20 0° 349° (N) 4,112 8.4 -26.9°
Reaches altitude 10° 01:14:22 10° 346° (NNW) 2,989 7.6 -26.6°
Maximum altitude 01:21:04 59° 270° (W) 1,040 4.4 -26.0°
Enters shadow 01:21:09 58° 265° (W) 1,037 4.4 -25.9°
